Miscellaneous Local Product
Issued by NWS Hastings, NE

Home | Current Version | Previous Version | Graphics & Text | Print | Product List | Glossary On
Versions: 1 2 3 4 5 6 7 8 9 10 11 12 13 14 15 16 17 18 19 20 21 22 23 24 25 26 27 28 29 30 31 32 33 34 35 36 37 38 39 40 41 42 43 44 45 46 47 48 49 50
000
AXUS43 KGID 190902
MISGRI

GID CWA HOURLY WEATHER ROUNDUP
NATIONAL WEATHER SERVICE HASTINGS NE
400 AM CDT SAT APR 19 2014

NOTE: "FAIR" INDICATES FEW OR NO CLOUDS BELOW 12,000 FEET WITH NO
SIGNIFICANT WEATHER AND/OR OBSTRUCTIONS TO VISIBILITY.

...SOUTH CENTRAL NEBRASKA...

CITY           SKY/WX    TMP DP  RH WIND       PRES   REMARKS
GRAND ISLAND   MOCLDY    54  41  61 S20G29    29.95F
HASTINGS       PTCLDY    54  40  59 S13G22    29.96F
KEARNEY        MOCLDY    54  43  66 S14G22    29.94F
ORD            MOCLDY    56  42  59 S20G25    29.89F
YORK           PTCLDY    54  39  58 S18G24    29.99S
AURORA         MOCLDY    53  40  61 S18G26    29.97F
LEXINGTON      CLOUDY    54  45  71 S21       29.90S
HOLDREGE       CLOUDY    54  43  67 S17G24    29.92S
HEBRON         PTCLDY    55  39  56 S17G25    30.02F

...NEBRASKA PANHANDLE...

CITY           SKY/WX    TMP DP  RH WIND       PRES   REMARKS
CHADRON        CLOUDY    52  39  61 NE20G26   29.91R
ALLIANCE       CLOUDY    47  36  65 CALM      29.86R
SCOTTSBLUFF    CLOUDY    54  36  50 N9        29.87R
SIDNEY         CLOUDY    53  39  59 NW12      29.87S

...WESTERN AND NORTH CENTRAL NEBRASKA...

CITY           SKY/WX    TMP DP  RH WIND       PRES   REMARKS
VALENTINE      CLOUDY    54  42  64 W12       29.87R
AINSWORTH      CLOUDY    58  43  56 SW12      29.87R
ONEILL         MOCLDY    58  41  53 S18G26    29.86S
BROKEN BOW     CLOUDY    54  43  66 S22G32    29.88F
IMPERIAL       MOCLDY    53  43  68 SE8       29.84F
NORTH PLATTE   CLOUDY    54  43  66 S16       29.84F
MCCOOK         MOCLDY    54  45  71 S9        29.88F

...EASTERN NEBRASKA...

CITY           SKY/WX    TMP DP  RH WIND       PRES   REMARKS
NORFOLK        MOCLDY    56  39  53 S16G24    29.96R
SO SIOUX CITY  CLEAR     52  40  63 SE10      29.99S
TEKAMAH        CLEAR     55  41  59 S16       30.01F
COLUMBUS       PTCLDY    54  37  54 S18G28    29.97S
ALBION         MOCLDY    54  40  58 S16       29.93F
OMAHA EPPLEY   PTCLDY    54  40  59 S18       30.04F
OFFUTT AFB     CLEAR     55  42  63 SE15      30.04F
MILLARD        CLEAR     56  41  56 S14G20    30.04F
LINCOLN        CLEAR     55  39  54 S16       30.03F
NEBRASKA CITY  CLEAR     53  41  64 S15       30.08F
BEATRICE       CLEAR     53  39  59 S14       30.04F
FALLS CITY     CLEAR     52  42  69 S13       30.10F

...NORTHERN KANSAS...

CITY           SKY/WX    TMP DP  RH WIND       PRES   REMARKS
GOODLAND       PTCLDY    51  44  77 S21       29.86F
HILL CITY      MOCLDY    55  46  71 S18G25    29.93F
PHILLIPSBURG   CLEAR     57  45  62 S13G20    29.95F
SMITH CENTER   CLEAR     52  45  76 SE13      29.99F
BELOIT         CLEAR     54  39  58 SE13      30.01F
HAYS           MOCLDY    55  45  67 S25       29.97F
RUSSELL        PTCLDY    56  47  71 S24       29.98F
CONCORDIA      PTCLDY    54  40  59 S18       30.03F
SALINA         CLEAR     56  39  53 S14       30.06F
TOPEKA         CLEAR     50  41  71 SE5       30.13F



USA.gov is the U.S. government's official web portal to all federal, state and local government web resources and services.